Theta_e
314 315 317 319 320 323 327 330 334 335 335 336 340 342 341 341 344 344 344 343 341 341 342 341 343 342 340 337 334 330 330 327 318 310 307 307 303 301 301 301 303 302 303
314 313 313 317 319 321 324 328 332 334 335 338 340 337 342 341 341 343 343 343 341 341 341 343 342 340 334 331 328 322 318 316 311 307 305 301 302 304 303 302 302 302 302
312 314 313 316 318 319 322 327 328 333 336 334 337 339 334 332 334 335 340 340 341 341 335 339 338 333 332 328 324 323 324 306 300 299 301 302 305 304 300 300 300 302 301
311 312 314 312 319 318 322 325 329 330 336 335 336 335 333 334 334 333 334 328 336 338 328 329 333 330 329 326 326 318 305 300 300 301 302 305 304 301 297 297 301 300 302
310 311 313 313 317 317 320 323 328 329 332 334 335 336 334 334 333 332 332 326 323 323 324 319 322 327 325 325 320 307 300 300 302 303 303 303 299 295 295 298 300 300 302
311 311 312 314 316 316 316 322 325 328 329 331 334 333 332 332 331 330 327 323 321 322 325 319 314 317 323 312 307 299 299 299 300 301 300 296 295 294 295 298 298 300 301
311 310 312 313 315 314 316 320 323 326 328 330 330 330 331 332 331 329 329 328 328 326 326 325 323 321 317 298 297 298 297 298 297 296 296 294 295 296 295 298 298 301 303
309 311 311 312 315 314 316 319 323 326 328 328 328 329 330 329 327 327 326 327 325 324 322 319 323 299 294 296 298 297 297 296 296 296 296 297 297 297 297 298 299 301 302
310 311 311 312 314 314 316 319 323 327 325 327 329 330 329 326 324 324 324 321 319 317 311 311 311 297 297 297 297 297 296 297 298 298 298 298 298 298 297 298 299 301 301
308 311 311 312 315 315 317 321 325 325 325 327 326 326 324 323 320 318 320 320 314 302 300 296 297 297 297 297 296 296 297 298 299 299 298 298 298 298 297 298 301 301 301
309 312 312 313 315 317 319 321 325 326 326 324 323 319 316 316 313 315 308 316 306 299 295 296 296 297 297 297 297 298 299 299 299 299 298 298 298 297 298 299 301 301 300
310 312 313 313 315 317 318 323 325 324 323 319 317 310 307 307 308 313 306 306 296 294 295 295 294 294 295 296 298 299 299 299 299 298 298 297 297 297 298 300 302 301 300
311 313 315 315 316 317 321 322 320 319 320 312 310 306 303 302 303 304 300 299 297 294 293 293 293 295 295 296 297 298 298 298 298 297 298 297 297 297 298 301 302 300 300
312 314 315 316 317 315 317 316 316 315 312 307 305 304 302 301 302 301 298 295 292 292 293 294 295 296 297 297 297 296 297 296 297 297 297 297 297 297 297 300 301 300 299
313 314 313 312 313 310 308 307 310 309 312 310 306 304 304 303 300 296 293 292 294 296 297 298 298 297 297 297 296 296 296 296 296 297 297 296 296 297 297 300 300 299 299
309 310 310 308 306 306 306 302 303 303 304 306 305 306 298 296 294 294 294 297 299 300 299 298 297 297 297 297 296 295 295 295 296 296 296 296 296 296 296 298 299 298 298
309 304 304 305 304 303 302 302 298 297 301 301 298 296 295 296 297 296 297 298 298 298 297 297 297 296 296 295 296 295 295 295 295 296 296 295 296 296 296 296 298 298 298
303 303 303 301 300 299 300 299 300 299 296 295 296 296 297 296 296 296 297 297 297 297 296 296 296 295 295 295 295 294 295 295 294 295 295 295 295 295 295 296 297 297 298
301 300 299 298 297 297 297 296 295 294 294 293 294 294 295 295 295 296 296 296 296 296 296 296 295 295 295 295 295 294 294 294 294 293 294 294 294 295 295 295 296 296 297
297 297 297 296 295 294 294 295 294 296 296 296 294 294 295 296 296 296 295 296 296 295 295 295 295 295 294 294 294 293 293 293 293 293 293 294 294 294 294 294 295 295 297
296 295 295 294 295 296 298 297 295 293 293 294 295 295 296 296 295 295 295 295 295 295 295 294 294 294 294 293 293 293 292 293 293 293 293 292 293 293 293 293 294 295 295
296 295 296 297 298 298 292 292 293 294 295 295 296 296 295 295 295 294 294 294 294 294 293 293 292 292 292 292 292 291 292 292 292 292 292 291 293 293 292 293 293 293 294
297 296 295 292 292 293 294 294 295 295 295 295 295 295 295 294 294 294 294 294 293 293 293 292 291 290 290 290 290 290 290 291 291 291 291 291 291 292 292 292 292 293 293
294 295 295 295 294 294 295 296 296 297 297 296 296 296 295 295 294 294 294 293 293 293 292 291 290 290 290 290 290 289 289 289 290 290 290 290 290 291 291 291 292 292 292
298 297 297 296 296 297 297 298 297 298 298 297 296 296 295 295 294 294 293 293 292 291 290 290 290 290 289 289 289 289 288 288 289 289 289 288 290 289 290 290 291 291 291
298 297 297 297 298 299 299 299 299 298 298 297 297 296 296 295 294 294 293 292 291 290 290 290 289 289 289 289 289 288 288 288 289 288 288 287 289 289 289 290 290 291 291
Wind_Speed
28 27 27 28 25 20 18 22 18 27 26 24 25 24 24 28 31 36 40 34 35 37 36 36 34 31 25 19 15 12 10 11 10 9 9 12 13 13 14 18 16 16 15
25 32 35 30 25 23 22 18 22 17 24 24 21 22 22 24 26 28 33 34 40 38 39 33 35 26 20 16 13 10 8 5 5 7 6 6 9 11 16 14 15 12 15
31 24 30 27 31 26 23 19 17 18 17 22 22 20 23 22 21 21 29 34 35 39 31 38 30 26 22 19 16 10 2 4 2 4 3 6 6 10 14 13 11 12 12
29 28 27 36 26 23 21 19 17 17 16 17 20 23 22 21 19 18 20 20 38 47 35 34 34 29 25 21 13 9 10 4 5 5 8 5 7 13 12 15 15 17 13
29 28 23 29 27 29 23 20 17 16 16 18 20 21 19 17 15 13 13 9 13 7 20 17 24 30 23 14 12 15 13 11 7 8 3 4 8 13 17 14 17 19 14
29 27 28 22 23 25 28 21 20 18 16 15 20 22 18 16 14 15 12 4 16 11 10 27 23 24 17 20 19 14 11 9 8 3 2 6 9 14 15 16 21 21 21
29 30 26 23 25 26 26 23 22 19 18 18 18 17 16 17 23 19 13 13 18 19 25 23 13 16 17 19 20 15 12 9 7 7 8 9 14 19 18 18 20 18 20
34 27 25 26 24 26 27 23 21 19 16 19 18 17 17 17 20 17 15 18 28 34 29 20 19 24 22 19 18 16 14 13 12 11 13 15 20 22 24 16 16 15 16
27 25 28 27 22 26 24 20 20 21 18 19 19 21 19 17 18 18 20 28 36 30 28 27 24 27 21 18 16 16 15 15 15 18 19 19 19 20 24 23 19 19 17
25 24 25 25 20 23 21 19 22 19 18 19 20 18 16 19 19 22 32 38 37 35 31 29 27 24 22 19 17 18 19 20 20 16 15 16 17 17 20 20 21 18 20
19 21 22 19 21 21 18 19 20 20 18 22 24 24 24 25 30 35 38 40 36 34 34 31 29 23 20 18 17 18 21 20 17 10 11 12 14 15 18 19 17 14 21
12 22 19 20 20 20 20 21 22 25 26 31 33 34 32 33 33 32 29 34 35 33 34 30 28 26 24 23 23 24 20 17 13 13 14 16 16 20 18 16 13 18 22
11 22 17 21 19 20 27 30 30 30 33 38 39 41 38 35 31 30 30 34 32 32 33 31 28 26 22 21 21 21 19 16 16 16 17 17 17 15 15 14 12 15 18
19 21 18 22 28 33 31 32 34 36 40 42 46 45 41 36 34 37 36 35 36 36 33 30 28 26 24 23 23 23 22 20 19 17 15 16 13 14 16 14 11 15 15
29 30 30 34 33 35 36 35 35 36 38 44 47 45 42 44 44 41 36 36 35 34 30 29 26 22 23 22 21 21 21 19 19 17 14 14 15 14 16 17 16 16 15
42 40 39 40 41 40 40 39 35 38 39 41 43 44 50 49 45 41 38 34 31 27 24 25 23 23 21 21 22 21 20 20 17 13 13 15 15 16 18 18 20 19 16
40 43 43 42 42 42 42 44 47 39 41 46 51 52 52 48 44 38 34 29 27 26 27 25 24 22 21 20 20 21 21 17 11 13 14 15 18 18 19 19 18 21 18
41 41 41 42 43 45 44 49 55 59 59 51 46 48 43 44 43 35 31 29 28 25 26 25 23 22 22 23 21 19 15 13 15 14 16 18 21 19 19 19 18 21 18
42 42 44 45 49 56 61 64 65 62 60 57 52 47 43 41 38 32 26 28 27 26 26 23 24 26 24 20 17 16 16 16 17 20 18 20 20 19 19 19 18 18 19
45 49 53 57 59 61 63 66 63 61 56 51 47 47 41 33 28 28 28 27 27 26 25 26 24 21 19 17 15 12 14 18 19 19 21 20 20 19 18 19 18 21 18
55 55 58 59 63 66 66 66 63 58 55 50 44 35 29 31 31 30 29 27 25 25 25 24 22 20 19 16 11 13 16 16 18 18 19 19 19 18 17 17 18 18 19
57 58 61 64 64 65 62 58 53 50 46 43 36 31 33 33 31 30 29 28 26 24 21 19 17 15 13 13 13 13 13 17 17 17 17 17 16 18 16 18 18 19 22
56 50 48 52 53 45 45 47 48 45 39 37 36 34 32 32 31 30 29 27 25 24 21 18 16 16 19 18 18 18 15 13 16 15 16 16 15 18 17 18 18 19 19
50 47 44 43 44 47 50 44 38 35 34 34 33 31 30 29 28 27 25 23 20 19 18 17 19 19 19 19 19 18 17 15 13 14 15 12 16 16 18 16 18 19 16
38 39 40 39 39 37 35 35 35 33 32 31 31 31 29 29 28 26 24 22 20 20 20 20 20 19 19 19 19 18 16 15 16 16 17 15 17 16 17 17 17 17 16
35 39 40 37 32 31 32 32 32 31 31 31 30 28 27 27 25 23 22 20 19 20 20 20 19 18 18 18 17 17 16 15 17 18 19 19 17 18 17 17 17 16 16
Wind_Direction
282 277 275 271 270 265 266 258 261 248 242 245 244 247 252 246 242 239 236 229 221 220 221 219 221 226 228 223 225 221 224 215 199 184 224 278 301 314 337 341 350 345 334
293 275 268 272 260 263 252 257 238 260 248 240 244 247 252 254 250 242 234 227 223 218 218 213 216 212 199 194 187 176 171 165 211 227 236 299 348 339 332 349 329 356 324
279 295 264 275 255 254 255 245 251 237 250 246 245 245 251 261 261 248 244 242 222 216 222 216 201 189 182 177 166 162 165 183 164 208 50 34 28 304 322 321 347 336 354
282 275 282 255 256 243 252 246 245 237 232 242 240 244 248 252 249 240 230 189 200 209 203 192 184 171 170 165 178 153 128 117 163 86 68 69 284 315 333 339 7 358 22
273 274 272 262 260 242 245 243 238 239 232 241 233 246 248 231 231 234 199 160 303 204 155 179 163 153 162 173 146 126 134 146 118 92 152 267 326 352 357 9 7 15 33
295 260 263 266 253 243 244 241 235 228 232 236 229 238 238 217 216 182 192 199 203 217 220 178 151 136 141 130 112 121 133 140 143 149 59 23 9 12 11 26 13 15 7
299 258 268 254 249 244 242 242 240 239 227 226 228 237 219 199 190 208 212 195 210 194 192 181 147 135 126 125 130 128 121 118 104 86 56 47 30 25 22 30 13 25 357
284 266 257 242 247 242 242 241 252 226 213 214 224 222 215 209 201 205 195 184 178 178 179 148 153 120 131 137 127 126 119 107 90 72 56 44 33 26 21 28 15 32 7
269 261 248 232 245 235 242 247 229 217 210 208 209 213 207 190 196 190 195 171 173 165 155 147 134 139 144 132 131 131 115 93 74 56 45 42 30 25 11 20 26 21 2
257 241 239 223 239 230 239 233 221 215 206 195 184 183 180 171 175 170 177 165 159 147 139 136 138 139 136 129 123 112 100 83 63 49 45 41 25 24 11 21 17 10 353
269 225 228 229 225 225 216 219 209 189 184 167 163 155 158 161 166 166 163 155 151 140 137 138 131 128 122 116 109 102 92 83 78 63 47 43 26 25 20 23 9 7 11
253 203 205 217 209 204 207 195 190 180 165 155 150 147 147 147 158 164 156 142 133 134 129 126 120 120 114 114 106 95 90 86 86 67 53 38 33 21 24 20 1 13 20
217 186 201 192 192 203 191 177 172 173 164 154 151 144 137 138 136 138 128 123 128 130 120 115 112 108 107 104 102 104 99 93 81 68 54 35 45 23 22 33 44 28 21
181 181 188 181 172 164 166 167 166 163 158 154 149 145 139 139 129 124 123 125 129 120 112 107 106 99 93 90 81 77 76 70 69 65 57 43 44 36 27 34 24 17 30
164 162 160 161 157 152 149 150 158 159 164 159 154 149 141 129 125 122 128 127 117 108 105 94 89 93 86 84 82 82 76 69 57 58 56 52 38 42 33 36 22 25 35
146 146 151 150 146 146 147 137 142 147 154 153 145 141 127 122 125 125 121 112 103 100 108 112 105 95 93 84 69 70 67 63 58 58 62 56 41 38 40 36 21 33 35
146 142 143 143 141 140 138 137 130 123 130 129 126 123 122 125 129 131 121 111 112 119 111 101 95 91 87 84 84 72 57 50 55 63 65 61 45 41 39 37 31 29 32
139 140 140 138 137 133 131 127 126 125 121 118 119 121 123 123 115 115 115 115 110 105 101 100 97 91 82 77 69 65 71 51 42 60 68 66 52 39 36 35 35 27 27
134 133 131 128 125 125 125 125 123 123 122 122 121 119 118 116 111 110 110 108 108 105 101 99 92 80 75 72 69 71 62 53 39 44 66 63 55 41 35 33 33 27 24
123 127 127 126 127 124 124 126 125 124 121 120 119 114 107 106 113 110 109 107 105 105 103 92 89 91 91 88 77 73 76 60 44 37 46 60 52 44 35 32 31 24 31
121 122 124 124 124 125 126 122 121 120 118 111 107 106 111 114 111 110 107 104 104 100 101 102 101 97 89 74 80 84 68 75 57 39 38 40 54 35 42 36 35 30 34
115 114 118 121 123 121 117 115 113 112 112 109 110 118 120 115 112 111 109 106 104 103 102 104 102 100 110 113 89 76 87 76 69 46 41 26 61 44 42 39 36 35 28
108 105 108 111 110 112 114 112 110 109 111 116 118 117 114 113 111 108 107 109 107 104 102 93 93 88 84 81 72 65 62 71 81 67 47 23 52 48 33 42 35 32 35
109 108 109 112 113 111 109 108 111 115 117 117 116 115 115 116 116 115 114 112 112 107 103 99 91 86 82 77 72 68 66 68 71 67 56 43 40 52 38 45 40 31 39
105 108 110 112 113 114 115 116 116 114 114 115 114 112 110 109 108 106 106 103 100 98 93 90 87 82 78 73 67 65 64 65 62 54 48 43 44 47 47 35 45 34 34
110 111 111 111 113 116 117 117 117 116 117 117 116 114 111 107 106 105 105 105 103 96 90 86 82 78 74 71 65 63 60 60 56 43 40 39 50 33 46 34 46 32 34